Location: Cambridge
(43.3830°N, 80.3170°W)
Time: 18:12:38
(UTC-04:00)

Envisat - Pass Details

Date: 30 March 2019
Orbit: 764 x 766 km, 98.2° (Epoch: 22 April)

Event Time Altitude Azimuth Distance (km) Brightness Sun altitude
Rises 21:21:38 0° 215° (SW) 3,220 6.4 -17.7°
Reaches altitude 10° 21:25:09 10° 241° (WSW) 2,300 6.0 -18.3°
Maximum altitude 21:27:40 14° 271° (W) 2,054 6.1 -18.7°
Drops below altitude 10° 21:30:12 10° 301° (WNW) 2,308 6.7 -19.1°
Sets 21:33:46 0° 327° (NNW) 3,241 7.2 -19.7°
